Terminal Aerodrome Forecast
Issued by NWS

Current Version | Previous Version | Text Only | Print | Product List | Glossary Off
Versions: 1 2 3 4 5 6 7 8 9 10 11 12 13 14 15 16 17 18 19 20 21 22

000
FTUS41 KRLX 240700 AAA
TAFCKB
TAF AMD
KCKB 240722Z 2407/2506 19012G23KT 6SM BR SCT040 BKN050 OVC090
     FM241100 19009G15KT P6SM SCT040
     FM241600 20018G29KT P6SM SCT100
     FM241800 21022G40KT P6SM SCT060
     FM242000 22018G32KT P6SM BKN040
     FM242300 23015G24KT P6SM BKN035=

USA.gov is the U.S. government's official web portal to all federal, state and local government web resources and services.